ITUPSAT1

Last updated on Sat Aug 15 2026 00:03:14 GMT+0000 (Coordinated Universal Time)

1 35935U 09051E 26226.47192505 .00000334 00000+0 78930-4 0 9991 2 35935 98.3981 134.0034 0008715 62.1179 298.0903 14.60514218897240
UTC large
Height (km)
Speed (km/s)
/
Latitude / Longitude
Inclination (degrees)
Orbital Period (minutes)
Azimuth
Elevation
Range (km)
Doppler Factor

Next 0 passes for location: London (51.5072 / 0.1276)

No passes found over London.
ITUPSAT1